Regional Weather Roundup
Issued by NWS

Home | Current Version | Previous Version | Graphics & Text | Print | Product List | Glossary On
Versions: 1 2 3 4 5 6 7 8 9 10 11 12 13 14 15 16 17 18 19 20 21 22 23 24 25 26 27 28 29 30 31 32 33 34 35 36 37 38 39 40 41 42 43 44 45 46 47 48 49 50
000
ASUS43 KBIS 180510
RWRND

NORTH DAKOTA REGIONAL WEATHER ROUNDUP
NATIONAL WEATHER SERVICE BISMARCK ND
1200 AM CDT FRI AUG 18 2017

NOTE: "FAIR" INDICATES FEW OR NO CLOUDS BELOW 12,000 FEET WITH NO
SIGNIFICANT WEATHER AND/OR OBSTRUCTIONS TO VISIBILITY.


NDZ001>003-009>011-017-180600-
NORTHWEST NORTH DAKOTA

CITY           SKY/WX    TMP DP  RH WIND       PRES   REMARKS
WILLISTON      CLEAR     64  54  69 N5        29.92S
MINOT          CLOUDY    69  54  58 E20       29.86R
MINOT AFB      CLOUDY    67  56  67 NW20      29.86R
$$

NDZ018>021-031>035-040>046-180600-
SOUTHWEST NORTH DAKOTA

CITY           SKY/WX    TMP DP  RH WIND       PRES   REMARKS
BISMARCK       CLOUDY    66  58  75 SW5       29.84R
DICKINSON      CLEAR     61  48  62 NW5       29.91R
GARRISON         N/A     62  60  93 CALM      29.82S
HETTINGER ARPT PTCLDY    56  48  74 NW5       29.93S
$$

NDZ004>008-012>016-024-026-027-054-180600-
NORTHEAST NORTH DAKOTA

CITY           SKY/WX    TMP DP  RH WIND       PRES   REMARKS
GRAND FORKS    CLEAR     62  61  96 SW6       29.84R
GRND FRKS AFB  PTCLDY    72  59  64 CALM      29.89R
DEVILS LAKE    CLOUDY    68  63  84 S5        29.87S
$$

NDZ022-023-025-028>030-036>039-047>053-180600-
SOUTHEAST NORTH DAKOTA

CITY           SKY/WX    TMP DP  RH WIND       PRES   REMARKS
FARGO          CLOUDY    64  60  87 CALM      29.85F
JAMESTOWN      CLEAR     59  56  89 SE3       29.86F
$$





USA.gov is the U.S. government's official web portal to all federal, state and local government web resources and services.